Weather History for KEET - December, 2013

Change the Weather History Date:

Monday, December 23, 2013

  Actual Average Record
Temperature  
Mean Temperature 44 °F 45 °F  
Max Temperature 55 °F 55 °F 73 °F (1970)
Min Temperature 33 °F 35 °F 13 °F (1960)
Degree Days  
Heating Degree Days 21 20  
Month to date heating degree days 322 411  
Since 1 July heating degree days 778 855  
Moisture  
Dew Point 41 °F    
Average Humidity 84    
Maximum Humidity 100    
Minimum Humidity 67    
Precipitation  
Precipitation 0.14 in 0.16 in 1.84 in (2014)
Month to date precipitation 8.92 3.54  
Year to date precipitation 64.09 53.42  
Snow  
Snow 0.00 in - - ()
Month to date snowfall 0.0  
Since 1 July snowfall 0.0  
Snow Depth 0.00 in    
Sea Level Pressure  
Sea Level Pressure 30.25 in    
Wind  
Wind Speed 8 mph (NNW)    
Max Wind Speed 16 mph    
Max Gust Speed 23 mph    
Visibility 9 miles    
Events Rain    
T = Trace of Precipitation, MM = Missing Value Source: NWS Daily Summary

Daily Weather History Graph

Daily Weather History Graph

Search for Another Location

Airport or City:

Trip Planner

Search our weather history database for the weather conditions in past years. The results will help you decide how hot, cold, wet, or windy it might be!

Date:

Astronomy

Dec. 23, 2013 Rise Set
Actual Time 6:47 AM CST 4:45 PM CST
Civil Twilight 6:20 AM CST 5:12 PM CST
Nautical Twilight 5:49 AM CST 5:43 PM CST
Astronomical Twilight 5:18 AM CST 6:13 PM CST
Moon 10:36 PM CST (12/23) 10:28 AM CST (12/23)
Length of Visible Light 10h 52m
Length of Day
9h 57m
Waning Gibbous, 68% of the Moon is Illuminated
Dec 23
Waning Gibbous
Dec 25
Last Quarter
Jan 1
New
Jan 7
First Quarter
Jan 15
Full

Hourly Weather History & Observations

Time (CST) Temp. Windchill Dew Point Humidity Pressure Visibility Wind Dir Wind Speed Gust Speed Precip Events Conditions
12:53 AM 54.0 °F - 53.1 °F 97% 30.09 in 4.0 mi Calm Calm - 0.06 in Rain Rain
1:53 AM 54.0 °F - 53.1 °F 97% 30.09 in 8.0 mi Calm Calm - 0.05 in Rain Light Rain
2:16 AM 54.0 °F - 52.0 °F 93% 30.10 in 10.0 mi Calm Calm - 0.00 in Rain Light Rain
2:48 AM 53.6 °F - 51.8 °F 94% 30.14 in 2.5 mi Variable 3.5 mph - 0.01 in Rain Light Rain
2:49 AM 53.1 °F - 52.0 °F 96% 30.13 in 2.5 mi Variable 3.5 mph - 0.01 in Rain Light Rain
3:10 AM 53.1 °F - 52.0 °F 96% 30.12 in 3.0 mi NW 5.8 mph - 0.02 in Rain Light Rain
3:21 AM 53.1 °F - 52.0 °F 96% 30.12 in 9.0 mi WNW 6.9 mph - 0.02 in   Overcast
3:53 AM 53.1 °F - 52.0 °F 96% 30.11 in 8.0 mi NW 6.9 mph - 0.02 in   Overcast
4:00 AM 53.1 °F - 52.0 °F 96% 30.12 in 8.0 mi NW 9.2 mph - N/A   Overcast
4:14 AM 53.1 °F - 51.1 °F 93% 30.15 in 10.0 mi NW 13.8 mph - N/A   Overcast
4:53 AM 51.1 °F - 48.9 °F 92% 30.15 in 10.0 mi NW 12.7 mph - N/A   Overcast
5:18 AM 48.9 °F - 46.9 °F 93% 30.16 in 10.0 mi NW 12.7 mph 23.0 mph N/A   Overcast
5:25 AM 48.9 °F - 46.0 °F 90% 30.18 in 10.0 mi NW 12.7 mph - N/A   Overcast
5:53 AM 46.9 °F - 46.0 °F 97% 30.21 in 8.0 mi NW 9.2 mph - N/A   Overcast
6:25 AM 46.9 °F - 44.1 °F 90% 30.22 in 8.0 mi NW 10.4 mph - N/A   Overcast
6:53 AM 46.0 °F 40.6 °F 44.1 °F 93% 30.22 in 9.0 mi NW 11.5 mph - N/A   Overcast
7:37 AM 46.0 °F 41.0 °F 42.1 °F 86% 30.24 in 10.0 mi North 10.4 mph - N/A   Overcast
7:53 AM 46.0 °F 41.4 °F 42.1 °F 86% 30.25 in 10.0 mi North 9.2 mph - N/A   Overcast
8:53 AM 45.0 °F 40.6 °F 42.1 °F 90% 30.27 in 10.0 mi NNW 8.1 mph - N/A   Overcast
9:40 AM 44.1 °F 38.6 °F 41.0 °F 89% 30.30 in 9.0 mi NNW 10.4 mph - N/A   Overcast
9:53 AM 44.1 °F 37.7 °F 39.9 °F 85% 30.30 in 9.0 mi NW 12.7 mph - N/A   Overcast
10:25 AM 44.1 °F 38.6 °F 41.0 °F 89% 30.31 in 7.0 mi NW 10.4 mph 17.3 mph N/A   Overcast
10:53 AM 44.1 °F 38.6 °F 39.9 °F 85% 30.31 in 10.0 mi NNW 10.4 mph - N/A   Overcast
11:53 AM 44.1 °F 38.6 °F 39.0 °F 82% 30.30 in 10.0 mi NNW 10.4 mph 19.6 mph N/A   Overcast
12:53 PM 43.0 °F 38.2 °F 37.9 °F 82% 30.29 in 10.0 mi NNW 8.1 mph 18.4 mph N/A   Overcast
1:34 PM 43.0 °F 35.7 °F 36.0 °F 76% 30.28 in 10.0 mi NNW 15.0 mph 21.9 mph N/A   Overcast
1:53 PM 43.0 °F 36.4 °F 36.0 °F 76% 30.29 in 10.0 mi NNW 12.7 mph 20.7 mph N/A   Overcast
2:53 PM 42.1 °F 37.7 °F 35.1 °F 76% 30.30 in 10.0 mi NNW 6.9 mph - N/A   Overcast
3:53 PM 42.1 °F 35.7 °F 32.0 °F 67% 30.31 in 10.0 mi North 11.5 mph - N/A   Overcast
4:53 PM 41.0 °F 34.7 °F 32.0 °F 70% 30.32 in 10.0 mi NNW 10.4 mph - N/A   Overcast
5:53 PM 39.9 °F 34.5 °F 30.9 °F 70% 30.35 in 10.0 mi NNW 8.1 mph - N/A   Overcast
6:53 PM 39.9 °F 33.9 °F 30.0 °F 68% 30.36 in 10.0 mi NNW 9.2 mph 17.3 mph N/A   Overcast
7:53 PM 39.9 °F 32.9 °F 30.0 °F 68% 30.38 in 10.0 mi NNW 11.5 mph 16.1 mph N/A   Overcast
8:53 PM 39.0 °F 34.8 °F 30.0 °F 70% 30.38 in 10.0 mi North 5.8 mph - N/A   Mostly Cloudy
9:26 PM 37.0 °F 33.3 °F 28.9 °F 73% 30.39 in 10.0 mi Variable 4.6 mph - N/A   Scattered Clouds
9:53 PM 37.0 °F 31.6 °F 28.0 °F 70% 30.40 in 10.0 mi North 6.9 mph - N/A   Clear
10:53 PM 36.0 °F 29.6 °F 28.0 °F 73% 30.41 in 10.0 mi North 8.1 mph - N/A   Clear
11:53 PM 34.0 °F 28.8 °F 28.0 °F 79% 30.42 in 10.0 mi NW 5.8 mph - N/A   Clear